CSN5852 ZSJN-ZSHC

Flight info

Callsign CSN5852
Flight time 1h 12m
Altitude 29100
Route ABTUB A593 DPX A470 IGRAT
Aircraft A320/M-SDE3FGHILORWXY/LB1

Departure

Time 2026-04-16 10:14
Airport Jinan Yaoqiang International Airport (ZSJN)

Arrival

Time 2026-04-16 11:27
Airport Hangzhou Xiaoshan International Airport (ZSHC)
Time Latitude Longitude Altitude Speed Heading
2026-04-16 09:37 36.85258 117.21155 84 ft 0 kts 90°
2026-04-16 10:00 36.85258 117.21142 84 ft 2 kts 90°
2026-04-16 10:00 36.85258 117.21124 84 ft 2 kts 91°
2026-04-16 10:01 36.85257 117.21086 84 ft 2 kts 58°
2026-04-16 10:01 36.85246 117.21073 84 ft 2 kts 25°
2026-04-16 10:01 36.85233 117.21069 84 ft 0 kts 355°
2026-04-16 10:01 36.85231 117.21069 84 ft 0 kts 353°
2026-04-16 10:05 36.85232 117.21069 84 ft 0 kts 353°
2026-04-16 10:05 36.85242 117.21068 84 ft 2 kts 353°
2026-04-16 10:05 36.85263 117.21066 84 ft 3 kts 357°
2026-04-16 10:06 36.85294 117.21069 84 ft 5 kts 15°
2026-04-16 10:06 36.85322 117.21112 84 ft 8 kts 67°
2026-04-16 10:06 36.85347 117.21183 84 ft 9 kts 65°
2026-04-16 10:06 36.85347 117.21260 84 ft 10 kts 146°
2026-04-16 10:07 36.85273 117.21268 84 ft 11 kts 181°
2026-04-16 10:07 36.85183 117.21268 84 ft 14 kts 180°
2026-04-16 10:07 36.85068 117.21268 84 ft 18 kts 179°
2026-04-16 10:07 36.84935 117.21268 84 ft 19 kts 181°
2026-04-16 10:08 36.84820 117.21269 84 ft 10 kts 178°
2026-04-16 10:08 36.84783 117.21302 84 ft 4 kts 85°
2026-04-16 10:08 36.84781 117.21349 84 ft 7 kts 112°
2026-04-16 10:08 36.84727 117.21368 84 ft 10 kts 182°
2026-04-16 10:09 36.84640 117.21368 84 ft 14 kts 180°
2026-04-16 10:09 36.84532 117.21368 84 ft 17 kts 179°
2026-04-16 10:09 36.84403 117.21368 84 ft 19 kts 180°
2026-04-16 10:09 36.84260 117.21368 84 ft 21 kts 179°
2026-04-16 10:10 36.84139 117.21368 84 ft 5 kts 175°
2026-04-16 10:10 36.84116 117.21402 84 ft 6 kts 97°
2026-04-16 10:10 36.84117 117.21462 84 ft 7 kts 88°
2026-04-16 10:10 36.84117 117.21466 84 ft 0 kts 88°
2026-04-16 10:12 36.84117 117.21467 84 ft 1 kts 88°
2026-04-16 10:12 36.84117 117.21521 84 ft 9 kts 89°
2026-04-16 10:13 36.84119 117.21587 82 ft 3 kts 66°
2026-04-16 10:13 36.84145 117.21594 82 ft 4 kts 354°
2026-04-16 10:13 36.84183 117.21592 82 ft 7 kts 358°
2026-04-16 10:13 36.84350 117.21588 83 ft 54 kts 350°
2026-04-16 10:14 36.84968 117.21598 84 ft 120 kts 354°
2026-04-16 10:14 36.86010 117.21599 118 ft 171 kts 359°
2026-04-16 10:14 36.87222 117.21597 639 ft 179 kts 359°
2026-04-16 10:14 36.88473 117.21574 1362 ft 181 kts 359°
2026-04-16 10:15 36.89716 117.21560 2038 ft 182 kts 360°
2026-04-16 10:15 36.91016 117.21555 2535 ft 194 kts
2026-04-16 10:15 36.92422 117.21554 2972 ft 211 kts
2026-04-16 10:15 36.93948 117.21555 3407 ft 229 kts
2026-04-16 10:16 36.95629 117.21558 3789 ft 251 kts
2026-04-16 10:16 36.97388 117.21582 4009 ft 254 kts
2026-04-16 10:16 36.99043 117.22268 4005 ft 249 kts 38°
2026-04-16 10:16 37.00127 117.23904 4028 ft 246 kts 70°
2026-04-16 10:17 37.00393 117.26000 4440 ft 250 kts 100°
2026-04-16 10:17 36.99818 117.27979 5364 ft 243 kts 127°
2026-04-16 10:17 36.98606 117.29364 6157 ft 242 kts 155°
2026-04-16 10:17 36.97013 117.30123 6933 ft 247 kts 163°
2026-04-16 10:18 36.95387 117.30821 7617 ft 255 kts 163°
2026-04-16 10:18 36.93689 117.31562 8354 ft 261 kts 163°
2026-04-16 10:18 36.91973 117.32320 9089 ft 267 kts 164°
2026-04-16 10:18 36.90195 117.33112 9797 ft 272 kts 164°
2026-04-16 10:19 36.88395 117.33916 10515 ft 277 kts 164°
2026-04-16 10:19 36.86589 117.34726 11246 ft 280 kts 164°
2026-04-16 10:19 36.84745 117.35549 11976 ft 283 kts 165°
2026-04-16 10:19 36.82875 117.36347 12485 ft 284 kts 168°
2026-04-16 10:20 36.80950 117.36813 12740 ft 285 kts 179°
2026-04-16 10:20 36.78888 117.36909 12764 ft 309 kts 184°
2026-04-16 10:20 36.76599 117.36890 12773 ft 337 kts 184°
2026-04-16 10:20 36.74223 117.36865 12770 ft 346 kts 183°
2026-04-16 10:21 36.71767 117.36850 12903 ft 356 kts 184°
2026-04-16 10:21 36.69273 117.36840 13644 ft 358 kts 183°
2026-04-16 10:21 36.66809 117.36834 14482 ft 357 kts 184°
2026-04-16 10:21 36.64308 117.36829 15160 ft 360 kts 184°
2026-04-16 10:22 36.61814 117.36822 15805 ft 364 kts 184°
2026-04-16 10:22 36.59256 117.36817 16459 ft 367 kts 184°
2026-04-16 10:22 36.56698 117.36810 17111 ft 369 kts 184°
2026-04-16 10:22 36.54129 117.36804 17723 ft 372 kts 184°
2026-04-16 10:23 36.51553 117.36808 18351 ft 374 kts 184°
2026-04-16 10:23 36.48944 117.36813 18971 ft 376 kts 185°
2026-04-16 10:23 36.46333 117.36815 19557 ft 378 kts 185°
2026-04-16 10:23 36.43703 117.36816 20154 ft 379 kts 185°
2026-04-16 10:24 36.41058 117.36817 20747 ft 381 kts 185°
2026-04-16 10:24 36.38391 117.36817 21329 ft 383 kts 185°
2026-04-16 10:24 36.35725 117.36815 21908 ft 385 kts 185°
2026-04-16 10:24 36.33049 117.36813 22442 ft 387 kts 185°
2026-04-16 10:25 36.30377 117.36811 22966 ft 389 kts 185°
2026-04-16 10:25 36.27633 117.36809 23519 ft 391 kts 185°
2026-04-16 10:25 36.24913 117.36809 24060 ft 392 kts 186°
2026-04-16 10:25 36.22183 117.36807 24445 ft 394 kts 186°
2026-04-16 10:26 36.19471 117.36803 24572 ft 394 kts 186°
2026-04-16 10:26 36.16723 117.36800 24571 ft 393 kts 186°
2026-04-16 10:26 36.13983 117.36796 24571 ft 393 kts 186°
2026-04-16 10:26 36.11230 117.36793 24570 ft 393 kts 186°
2026-04-16 10:27 36.08511 117.36787 24574 ft 393 kts 186°
2026-04-16 10:27 36.05784 117.36784 24581 ft 392 kts 186°
2026-04-16 10:27 36.03030 117.36820 24588 ft 395 kts 184°
2026-04-16 10:27 36.00275 117.37138 24591 ft 401 kts 178°
2026-04-16 10:28 35.97528 117.37786 24588 ft 405 kts 173°
2026-04-16 10:28 35.94804 117.38725 24585 ft 409 kts 170°
2026-04-16 10:28 35.92094 117.39739 24576 ft 408 kts 170°
2026-04-16 10:28 35.89370 117.40767 24579 ft 408 kts 170°
2026-04-16 10:29 35.86651 117.41790 24582 ft 407 kts 170°
2026-04-16 10:29 35.83949 117.42803 24581 ft 408 kts 170°
2026-04-16 10:29 35.81636 117.43668 24580 ft 407 kts 170°
2026-04-16 10:29 35.78899 117.44689 24585 ft 409 kts 170°
2026-04-16 10:30 35.76150 117.45715 24576 ft 409 kts 170°
2026-04-16 10:30 35.73437 117.46725 24578 ft 409 kts 170°
2026-04-16 10:30 35.70719 117.47738 24580 ft 409 kts 170°
2026-04-16 10:30 35.67980 117.48756 24579 ft 410 kts 170°
2026-04-16 10:31 35.65280 117.49762 24579 ft 408 kts 170°
2026-04-16 10:31 35.62549 117.50776 24578 ft 408 kts 170°
2026-04-16 10:31 35.59822 117.51788 24583 ft 409 kts 170°
2026-04-16 10:31 35.57119 117.52790 24581 ft 409 kts 170°
2026-04-16 10:32 35.54375 117.53807 24594 ft 410 kts 170°
2026-04-16 10:32 35.51637 117.54823 24583 ft 410 kts 170°
2026-04-16 10:32 35.48917 117.55830 24580 ft 409 kts 170°
2026-04-16 10:32 35.46172 117.56844 24594 ft 409 kts 170°
2026-04-16 10:33 35.43456 117.57850 24581 ft 410 kts 170°
2026-04-16 10:33 35.40712 117.58862 24577 ft 412 kts 170°
2026-04-16 10:33 35.37959 117.59877 24577 ft 412 kts 170°
2026-04-16 10:33 35.35242 117.60880 24579 ft 413 kts 170°
2026-04-16 10:34 35.32476 117.61899 24583 ft 412 kts 169°
2026-04-16 10:34 35.29752 117.62902 24587 ft 412 kts 169°
2026-04-16 10:34 35.26982 117.63923 24589 ft 412 kts 170°
2026-04-16 10:34 35.24229 117.64937 24588 ft 412 kts 169°
2026-04-16 10:35 35.21500 117.65948 24580 ft 411 kts 170°
2026-04-16 10:35 35.18754 117.66969 24584 ft 412 kts 170°
2026-04-16 10:35 35.16020 117.67980 24583 ft 412 kts 170°
2026-04-16 10:35 35.13285 117.68986 24588 ft 412 kts 170°
2026-04-16 10:36 35.10527 117.69997 24589 ft 412 kts 170°
2026-04-16 10:36 35.07799 117.70995 24581 ft 412 kts 170°
2026-04-16 10:36 35.05027 117.72013 24591 ft 413 kts 170°
2026-04-16 10:36 35.02259 117.73029 24732 ft 421 kts 170°
2026-04-16 10:37 34.99434 117.74061 24907 ft 430 kts 170°
2026-04-16 10:37 34.96510 117.75128 25074 ft 440 kts 169°
2026-04-16 10:37 34.93545 117.76211 25229 ft 449 kts 169°
2026-04-16 10:37 34.90537 117.77308 25376 ft 457 kts 169°
2026-04-16 10:38 34.87480 117.78424 25544 ft 464 kts 169°
2026-04-16 10:38 34.84351 117.79565 25794 ft 468 kts 169°
2026-04-16 10:38 34.81282 117.80692 26218 ft 468 kts 169°
2026-04-16 10:38 34.78104 117.81853 26768 ft 464 kts 169°
2026-04-16 10:39 34.75045 117.82962 27294 ft 461 kts 170°
2026-04-16 10:39 34.71991 117.84064 27742 ft 459 kts 169°
2026-04-16 10:39 34.68911 117.85171 28082 ft 460 kts 170°
2026-04-16 10:39 34.65828 117.86278 28351 ft 462 kts 170°
2026-04-16 10:40 34.62764 117.87374 28657 ft 462 kts 170°
2026-04-16 10:40 34.59674 117.88482 28967 ft 462 kts 170°
2026-04-16 10:40 34.56565 117.89595 29071 ft 464 kts 170°
2026-04-16 10:40 34.53484 117.90696 29079 ft 464 kts 170°
2026-04-16 10:41 34.47274 117.92916 29084 ft 465 kts 170°
2026-04-16 10:41 34.41040 117.95141 29086 ft 465 kts 170°
2026-04-16 10:42 34.34845 117.97347 29087 ft 466 kts 170°
2026-04-16 10:42 34.28598 117.99567 29085 ft 467 kts 170°
2026-04-16 10:43 34.22352 118.01832 29083 ft 468 kts 169°
2026-04-16 10:43 34.16135 118.04106 29079 ft 468 kts 169°
2026-04-16 10:44 34.09851 118.06390 29079 ft 469 kts 169°
2026-04-16 10:44 34.03624 118.08647 29080 ft 470 kts 169°
2026-04-16 10:45 33.97359 118.10924 29078 ft 470 kts 169°
2026-04-16 10:45 33.91068 118.13220 29076 ft 470 kts 169°
2026-04-16 10:46 33.84763 118.15504 29065 ft 470 kts 169°
2026-04-16 10:46 33.78468 118.17791 29067 ft 468 kts 169°
2026-04-16 10:47 33.72157 118.20095 29070 ft 468 kts 169°
2026-04-16 10:47 33.65947 118.22356 29070 ft 468 kts 169°
2026-04-16 10:48 33.59700 118.24628 29069 ft 467 kts 170°
2026-04-16 10:48 33.53484 118.26880 29069 ft 468 kts 170°
2026-04-16 10:49 33.47264 118.29131 29061 ft 467 kts 170°
2026-04-16 10:49 33.41029 118.31384 29059 ft 467 kts 170°
2026-04-16 10:50 33.34800 118.33628 29070 ft 466 kts 170°
2026-04-16 10:50 33.28594 118.35863 29062 ft 464 kts 171°
2026-04-16 10:51 33.22432 118.38077 29054 ft 465 kts 171°
2026-04-16 10:51 33.16214 118.40321 29054 ft 464 kts 171°
2026-04-16 10:52 33.10038 118.42549 29061 ft 464 kts 171°
2026-04-16 10:52 33.03872 118.44766 29052 ft 463 kts 171°
2026-04-16 10:53 32.97674 118.46993 29048 ft 463 kts 171°
2026-04-16 10:53 32.91485 118.49209 29049 ft 464 kts 171°
2026-04-16 10:54 32.85284 118.51422 29055 ft 465 kts 171°
2026-04-16 10:54 32.79064 118.53640 29050 ft 463 kts 171°
2026-04-16 10:55 32.72851 118.55855 29049 ft 464 kts 171°
2026-04-16 10:55 32.66622 118.58073 29044 ft 464 kts 171°
2026-04-16 10:56 32.60423 118.60192 29044 ft 463 kts 172°
2026-04-16 10:56 32.54259 118.62276 29049 ft 463 kts 172°
2026-04-16 10:57 32.48043 118.64381 29050 ft 463 kts 172°
2026-04-16 10:57 32.41850 118.66492 29044 ft 462 kts 172°
2026-04-16 10:58 32.35673 118.68600 29047 ft 463 kts 173°
2026-04-16 10:58 32.29492 118.70685 29047 ft 463 kts 172°
2026-04-16 10:59 32.23310 118.72772 29038 ft 462 kts 172°
2026-04-16 10:59 32.17113 118.74853 29040 ft 462 kts 173°
2026-04-16 11:00 32.10928 118.76917 29042 ft 462 kts 173°
2026-04-16 11:00 32.04746 118.78974 29032 ft 463 kts 173°
2026-04-16 11:01 31.98536 118.81042 29029 ft 462 kts 173°
2026-04-16 11:01 31.92313 118.83041 29037 ft 460 kts 174°
2026-04-16 11:02 31.86097 118.85009 29034 ft 461 kts 174°
2026-04-16 11:02 31.79890 118.87157 29032 ft 468 kts 168°
2026-04-16 11:03 31.73940 118.90784 29036 ft 486 kts 154°
2026-04-16 11:04 31.65868 118.98328 29037 ft 489 kts 151°
2026-04-16 11:04 31.60482 119.03208 29034 ft 489 kts 152°
2026-04-16 11:05 31.55056 119.07972 29034 ft 488 kts 152°
2026-04-16 11:05 31.49589 119.12756 29035 ft 491 kts 152°
2026-04-16 11:06 31.44127 119.17541 29031 ft 489 kts 152°
2026-04-16 11:06 31.38635 119.22340 29032 ft 490 kts 152°
2026-04-16 11:07 31.33180 119.27091 29038 ft 491 kts 152°
2026-04-16 11:07 31.30423 119.29488 28779 ft 492 kts 152°
2026-04-16 11:07 31.27675 119.31882 28192 ft 488 kts 151°
2026-04-16 11:07 31.24924 119.34269 27368 ft 488 kts 151°
2026-04-16 11:08 31.22201 119.36629 26420 ft 490 kts 151°
2026-04-16 11:08 31.19428 119.39033 25429 ft 493 kts 150°
2026-04-16 11:08 31.16671 119.41438 24746 ft 488 kts 150°
2026-04-16 11:08 31.13968 119.43810 24129 ft 483 kts 150°
2026-04-16 11:09 31.11303 119.46150 23525 ft 479 kts 149°
2026-04-16 11:09 31.08657 119.48467 22933 ft 475 kts 150°
2026-04-16 11:09 31.05999 119.50786 22317 ft 472 kts 149°
2026-04-16 11:09 31.03401 119.53046 21739 ft 469 kts 149°
2026-04-16 11:10 31.00804 119.55305 21158 ft 466 kts 148°
2026-04-16 11:10 30.98216 119.57554 20590 ft 462 kts 148°
2026-04-16 11:10 30.95647 119.59791 20023 ft 458 kts 148°
2026-04-16 11:10 30.93119 119.61988 19461 ft 453 kts 147°
2026-04-16 11:11 30.90616 119.64162 18887 ft 450 kts 147°
2026-04-16 11:11 30.88082 119.66360 18311 ft 446 kts 147°
2026-04-16 11:11 30.85625 119.68497 17733 ft 442 kts 147°
2026-04-16 11:11 30.83188 119.70615 17182 ft 438 kts 147°
2026-04-16 11:12 30.80723 119.72752 16601 ft 433 kts 147°
2026-04-16 11:12 30.78300 119.74851 16058 ft 429 kts 146°
2026-04-16 11:12 30.75864 119.76959 15489 ft 426 kts 146°
2026-04-16 11:12 30.73504 119.78997 14909 ft 422 kts 147°
2026-04-16 11:13 30.71154 119.81035 14338 ft 418 kts 145°
2026-04-16 11:13 30.68855 119.83109 13788 ft 415 kts 144°
2026-04-16 11:13 30.66613 119.85170 13234 ft 411 kts 144°
2026-04-16 11:13 30.64299 119.87125 12849 ft 404 kts 149°
2026-04-16 11:14 30.61928 119.88856 12400 ft 402 kts 153°
2026-04-16 11:14 30.59485 119.90437 11658 ft 402 kts 154°
2026-04-16 11:14 30.57042 119.91978 11042 ft 400 kts 154°
2026-04-16 11:14 30.54618 119.93504 10533 ft 394 kts 154°
2026-04-16 11:15 30.52263 119.94991 10324 ft 379 kts 154°
2026-04-16 11:15 30.50058 119.96388 10172 ft 365 kts 154°
2026-04-16 11:15 30.47865 119.97777 10042 ft 350 kts 154°
2026-04-16 11:15 30.45744 119.99117 9777 ft 341 kts 154°
2026-04-16 11:16 30.43705 120.00410 9749 ft 324 kts 155°
2026-04-16 11:16 30.41766 120.01640 9535 ft 315 kts 154°
2026-04-16 11:16 30.39848 120.02854 9245 ft 310 kts 154°
2026-04-16 11:16 30.37959 120.04049 8960 ft 304 kts 154°
2026-04-16 11:17 30.36112 120.05215 8683 ft 299 kts 154°
2026-04-16 11:17 30.34283 120.06370 8356 ft 296 kts 154°
2026-04-16 11:17 30.32469 120.07514 8021 ft 292 kts 154°
2026-04-16 11:17 30.30688 120.08639 7945 ft 292 kts 154°
2026-04-16 11:18 30.28873 120.09783 7894 ft 292 kts 154°
2026-04-16 11:18 30.27038 120.10941 7591 ft 293 kts 154°
2026-04-16 11:18 30.25248 120.12068 7248 ft 291 kts 154°
2026-04-16 11:18 30.23462 120.13195 6969 ft 287 kts 155°
2026-04-16 11:19 30.21655 120.13931 6878 ft 267 kts 181°
2026-04-16 11:19 30.19951 120.13487 6786 ft 245 kts 217°
2026-04-16 11:19 30.18850 120.12084 6574 ft 232 kts 245°
2026-04-16 11:19 30.18195 120.10410 6373 ft 226 kts 247°
2026-04-16 11:20 30.17543 120.08772 6173 ft 226 kts 246°
2026-04-16 11:20 30.16753 120.07201 5891 ft 229 kts 226°
2026-04-16 11:20 30.15337 120.06381 5603 ft 232 kts 187°
2026-04-16 11:20 30.13761 120.06722 5343 ft 235 kts 155°
2026-04-16 11:21 30.12294 120.07639 5091 ft 238 kts 153°
2026-04-16 11:21 30.10967 120.08753 4794 ft 240 kts 127°
2026-04-16 11:21 30.10436 120.10555 4520 ft 238 kts 85°
2026-04-16 11:21 30.10965 120.12322 4285 ft 233 kts 58°
2026-04-16 11:22 30.11806 120.13925 4051 ft 238 kts 60°
2026-04-16 11:22 30.12619 120.15609 3947 ft 238 kts 62°
2026-04-16 11:22 30.13398 120.17291 3942 ft 237 kts 62°
2026-04-16 11:22 30.14174 120.18969 3924 ft 233 kts 62°
2026-04-16 11:23 30.14917 120.20617 3752 ft 227 kts 63°
2026-04-16 11:23 30.15632 120.22235 3465 ft 227 kts 63°
2026-04-16 11:23 30.16347 120.23869 3168 ft 226 kts 64°
2026-04-16 11:23 30.17059 120.25497 2859 ft 224 kts 64°
2026-04-16 11:24 30.17747 120.27068 2571 ft 217 kts 63°
2026-04-16 11:24 30.18414 120.28587 2294 ft 208 kts 63°
2026-04-16 11:24 30.19060 120.30054 2023 ft 200 kts 63°
2026-04-16 11:24 30.19683 120.31470 1787 ft 195 kts 63°
2026-04-16 11:25 30.20273 120.32806 1587 ft 180 kts 63°
2026-04-16 11:25 30.20820 120.34045 1337 ft 163 kts 63°
2026-04-16 11:25 30.21319 120.35175 1093 ft 152 kts 62°
2026-04-16 11:25 30.21790 120.36238 897 ft 146 kts 63°
2026-04-16 11:26 30.22243 120.37263 704 ft 140 kts 62°
2026-04-16 11:26 30.22686 120.38266 530 ft 140 kts 62°
2026-04-16 11:26 30.23132 120.39272 342 ft 139 kts 62°
2026-04-16 11:26 30.23568 120.40270 167 ft 138 kts 62°
2026-04-16 11:27 30.24001 120.41245 36 ft 130 kts 63°
2026-04-16 11:27 30.24364 120.42063 29 ft 91 kts 65°
2026-04-16 11:27 30.24575 120.42535 29 ft 41 kts 64°
2026-04-16 11:27 30.24693 120.42806 29 ft 35 kts 64°
2026-04-16 11:28 30.24721 120.43070 29 ft 26 kts 89°
2026-04-16 11:28 30.24724 120.43189 29 ft 13 kts 89°
2026-04-16 11:28 30.24723 120.43301 29 ft 12 kts 90°
2026-04-16 11:28 30.24665 120.43372 29 ft 13 kts 153°
2026-04-16 11:29 30.24581 120.43422 29 ft 13 kts 152°
2026-04-16 11:29 30.24519 120.43459 29 ft 9 kts 152°
2026-04-16 11:29 30.24455 120.43497 29 ft 10 kts 153°
2026-04-16 11:29 30.24385 120.43538 29 ft 11 kts 153°
2026-04-16 11:30 30.24307 120.43562 29 ft 12 kts 205°
2026-04-16 11:30 30.24302 120.43481 29 ft 12 kts 322°
2026-04-16 11:30 30.24384 120.43433 29 ft 13 kts 333°
2026-04-16 11:30 30.24469 120.43382 29 ft 14 kts 333°
2026-04-16 11:31 30.24543 120.43329 29 ft 7 kts 281°
2026-04-16 11:31 30.24514 120.43261 29 ft 10 kts 241°
2026-04-16 11:31 30.24480 120.43185 29 ft 11 kts 243°
2026-04-16 11:31 30.24444 120.43102 29 ft 12 kts 243°
2026-04-16 11:32 30.24404 120.43010 29 ft 13 kts 242°
2026-04-16 11:32 30.24361 120.42915 29 ft 13 kts 242°
2026-04-16 11:32 30.24312 120.42818 29 ft 14 kts 240°
2026-04-16 11:32 30.24266 120.42715 29 ft 14 kts 243°
2026-04-16 11:33 30.24219 120.42608 29 ft 15 kts 243°
2026-04-16 11:33 30.24171 120.42496 29 ft 15 kts 243°
2026-04-16 11:33 30.24121 120.42384 28 ft 15 kts 243°
2026-04-16 11:33 30.24083 120.42296 29 ft 10 kts 242°
2026-04-16 11:34 30.24047 120.42218 29 ft 11 kts 242°
2026-04-16 11:34 30.23983 120.42188 29 ft 12 kts 152°
2026-04-16 11:34 30.23906 120.42236 29 ft 12 kts 152°
2026-04-16 11:34 30.23823 120.42284 29 ft 13 kts 153°
2026-04-16 11:35 30.23800 120.42307 29 ft 3 kts 104°
2026-04-16 11:35 30.23806 120.42318 29 ft 0 kts 42°
2026-04-16 11:36 30.23808 120.42323 29 ft 1 kts 62°
2026-04-16 11:36 30.23815 120.42338 29 ft 2 kts 62°
2026-04-16 11:36 30.23826 120.42363 29 ft 4 kts 63°
2026-04-16 11:36 30.23837 120.42387 29 ft 0 kts 63°
2026-04-16 11:37 30.23839 120.42394 29 ft 0 kts 63°
2026-04-16 11:37 30.23841 120.42396 29 ft 0 kts 63°